This demonstration page uses our WeatherBlox Daily Observations layout. Learn more.

Left ArrowRight Arrow

30.21309, -93.2044

Hourly Observations for October 2, 2022

Temp ( °F °C ) Dew Point ( °F °C ) Humidity (%) Winds ( mph kmh ) Pressure ( in mb ) Visibility ( mi km ) Precip ( " mm )
12:15 am 00:15 Clear 61 16.2 50 9.8 66 66 N 5 7 30.06 1018 10 16 0.00 0.00
12:35 am 00:35 Clear 61 16 49 9.6 66 66 N 6 9 30.06 1018 10 16 0.00 0.00
12:55 am 00:55 Clear 59 15 50 10 72 72 NNE 6 9 30.06 1018 10 16 0.00 0.00
1:15 am 01:15 Clear 61 15.9 49 9.5 66 66 NNE 6 9 30.06 1018 10 16 0.00 0.00
1:35 am 01:35 Clear 60 15.8 49 9.3 65 65 NNE 6 9 30.06 1018 10 16 0.00 0.00
1:55 am 01:55 Clear 60 15.7 49 9.2 65 65 NNE 6 9 30.06 1018 10 16 0.00 0.00
2:15 am 02:15 Clear 60 15.5 48 8.9 65 65 NE 6 9 30.07 1018 10 16 0.00 0.00
2:35 am 02:35 Clear 60 15.3 48 9.1 66 66 NNE 7 11 30.06 1018 10 16 0.00 0.00
2:55 am 02:55 Clear 59 15 48 9.1 68 68 NNE 6 9 30.07 1018 10 16 0.00 0.00
3:15 am 03:15 Clear 58 14.7 48 9.1 69 69 NNE 6 9 30.07 1018 10 16 0.00 0.00
3:35 am 03:35 Clear 59 14.9 48 8.9 67 67 N 6 9 30.07 1018 10 16 0.00 0.00
3:55 am 03:55 Clear 59 14.8 48 8.7 67 67 NNE 6 9 30.06 1018 10 16 0.00 0.00
4:15 am 04:15 Clear 58 14.2 47 8.6 69 69 NNE 3 6 30.06 1018 10 16 0.00 0.00
4:35 am 04:35 Clear 58 14.3 47 8.5 68 68 NNE 5 7 30.06 1018 10 16 0.00 0.00
4:55 am 04:55 Clear 58 14.4 47 8.6 68 68 NNE 5 7 30.07 1018 10 16 0.00 0.00
5:15 am 05:15 Clear 57 13.7 47 8.6 71 71 NNE 3 6 30.07 1018 10 16 0.00 0.00
5:35 am 05:35 Clear 58 14.3 48 8.8 69 69 Calm 30.07 1018 10 16 0.00 0.00
6:00 am 06:00 Mostly Clear 57 14 48 9 72 72 Calm 30.08 1019 10 16 0.00 0.00
6:47 am 06:47 Mostly Clear 57 14 48 9 72 72 Calm 30.09 1019 10 16 0.00 0.00
7:49 am 07:49 Mostly Sunny 57 14 48 9 72 72 Calm 30.12 1020 10 16 0.00 0.00
8:47 am 08:47 Mostly Sunny 63 17 50 10 63 63 NNE 6 9 30.14 1021 10 16 0.00 0.00
9:50 am 09:50 Mostly Sunny 70 21 52 11 53 53 NNE 6 9 30.14 1021 10 16 0.00 0.00
10:53 am 10:53 Mostly Sunny 75 24 50 10 41 41 NNE 6 9 30.14 1021 10 16 0.00 0.00
11:48 am 11:48 Mostly Sunny 79 26 48 9 34 34 NNE 5 7 30.14 1021 10 16 0.00 0.00
12:47 pm 12:47 Mostly Sunny 81 27 46 8 30 30 N 7 11 30.12 1020 10 16 0.00 0.00
1:45 pm 13:45 Mostly Sunny 82 28 45 7 27 27 NNE 8 13 30.09 1019 10 16 0.00 0.00
2:45 pm 14:45 Mostly Sunny 82 28 46 8 28 28 N 6 9 30.06 1018 10 16 0.00 0.00
3:45 pm 15:45 Mostly Sunny 84 29 46 8 27 27 N 12 19 30.05 1018 10 16 0.00 0.00
4:45 pm 16:45 Mostly Sunny 84 29 46 8 27 27 N 8 13 30.05 1018 10 16 0.00 0.00
5:45 pm 17:45 Mostly Sunny 82 28 48 9 30 30 NNE 6 9 30.05 1018 10 16 0.00 0.00
6:45 pm 18:45 Mostly Sunny 79 26 48 9 34 34 NNE 6 9 30.07 1018 10 16 0.00 0.00
7:45 pm 19:45 Mostly Clear 73 23 48 9 41 41 NNE 5 7 30.08 1019 10 16 0.00 0.00
8:45 pm 20:45 Mostly Clear 72 22 48 9 43 43 NE 5 7 30.09 1019 10 16 0.00 0.00
9:45 pm 21:45 Mostly Clear 70 21 50 10 49 49 NNE 6 9 30.11 1020 10 16 0.00 0.00
10:15 pm 22:15 Clear 69 20.3 49 9.2 49 49 NNE 6 9 30.12 1020 10 16 0.00 0.00
10:35 pm 22:35 Clear 68 19.9 49 9.7 52 52 NNE 6 9 30.11 1020 10 16 0.00 0.00
10:55 pm 22:55 Clear 67 19.4 50 9.9 54 54 NNE 6 9 30.11 1020 10 16 0.00 0.00
11:15 pm 23:15 Clear 67 19.4 50 9.9 54 54 NNE 6 9 30.11 1020 10 16 0.00 0.00
11:35 pm 23:35 Clear 66 18.9 49 9.7 55 55 NNE 6 9 30.11 1020 10 16 0.00 0.00
11:55 pm 23:55 Clear 66 19 49 9.7 55 55 NNE 5 7 30.11 1020 10 16 0.00 0.00

Powered by AerisWeather